| time (UTC) | temp F | wind direction | speed knots | gust knots | rain 1hr in | rain 24hr in | rain mn in | humidity % | barometer mb |
| 20260506001801 | 29 | 159 | 0.0 | 0.0 | 0.00 | 0.00 | 0.00 | 68 | 1013.4 |
| 20260505235801 | 30 | 149 | 0.0 | 0.0 | 0.00 | 0.00 | 0.00 | 66 | 1013.4 |
| 20260505233801 | 31 | 162 | 0.9 | 0.9 | 0.00 | 0.00 | 0.00 | 65 | 1013.3 |
| 20260505231801 | 29 | 185 | 0.9 | 0.9 | 0.00 | 0.00 | 0.00 | 71 | 1013.4 |
| 20260505230901 | 29 | 182 | 0.9 | 0.9 | 0.00 | 0.00 | 0.00 | 68 | 1013.4 |
| 20260505225801 | 29 | 182 | 0.9 | 0.9 | 0.00 | 0.00 | 0.00 | 68 | 1013.4 |
| 20260505223801 | 31 | 336 | 1.7 | 2.6 | 0.00 | 0.00 | 0.00 | 65 | 1013.3 |
| 20260505221802 | 30 | 180 | 0.9 | 1.7 | 0.00 | 0.00 | 0.00 | 67 | 1013.4 |
| 20260505215801 | 31 | 117 | 0.9 | 0.9 | 0.00 | 0.00 | 0.00 | 62 | 1013.3 |
| 20260505213801 | 32 | 165 | 0.9 | 0.9 | 0.00 | 0.00 | 0.00 | 60 | 1012.3 |
| 20260505211801 | 33 | 127 | 0.0 | 0.9 | 0.00 | 0.00 | 0.00 | 57 | 1012.3 |
| 20260505205801 | 32 | 320 | 1.7 | 2.6 | 0.00 | 0.00 | 0.00 | 61 | 1012.3 |
| 20260505203801 | 35 | 168 | 0.0 | 0.9 | 0.00 | 0.00 | 0.00 | 53 | 1012.2 |
| 20260505201801 | 35 | 236 | 1.7 | 1.7 | 0.00 | 0.00 | 0.00 | 55 | 1012.2 |
| 20260505195801 | 36 | 178 | 0.9 | 0.9 | 0.00 | 0.00 | 0.00 | 52 | 1012.1 |
| 20260505193801 | 38 | 175 | 0.0 | 0.0 | 0.00 | 0.00 | 0.00 | 47 | 1012.0 |
| 20260505191801 | 40 | 181 | 1.7 | 1.7 | 0.00 | 0.00 | 0.00 | 40 | 1011.9 |
| 20260505185802 | 43 | 177 | 1.7 | 2.6 | 0.00 | 0.00 | 0.00 | 35 | 1010.7 |
| 20260505183802 | 45 | 274 | 3.5 | 6.1 | 0.00 | 0.00 | 0.00 | 33 | 1010.5 |
| 20260505182253 | 47 | 213 | 1.7 | 2.6 | 0.00 | 0.00 | 0.00 | 30 | 1010.4 |
| 20260505181803 | 46 | 247 | 2.6 | 2.6 | 0.00 | 0.00 | 0.00 | 32 | 1010.5 |
| 20260505175802 | 47 | 195 | 0.9 | 1.7 | 0.00 | 0.00 | 0.00 | 31 | 1010.4 |
| 20260505173802 | 47 | 213 | 1.7 | 2.6 | 0.00 | 0.00 | 0.00 | 30 | 1010.4 |
| 20260505171802 | 48 | 240 | 4.3 | 6.1 | 0.00 | 0.00 | 0.00 | 29 | 1010.4 |
| 20260505165802 | 48 | 264 | 4.3 | 6.1 | 0.00 | 0.00 | 0.00 | 27 | 1010.3 |
| 20260505163802 | 47 | 269 | 6.1 | 7.8 | 0.00 | 0.00 | 0.00 | 27 | 1010.4 |
| 20260505161802 | 46 | 320 | 5.2 | 7.0 | 0.00 | 0.00 | 0.00 | 31 | 1010.4 |
| 20260505151802 | 48 | 265 | 7.8 | 12.2 | 0.00 | 0.00 | 0.00 | 23 | 1010.4 |
| 20260505123802 | 49 | 259 | 3.5 | 5.2 | 0.00 | 0.00 | 0.00 | 26 | 1009.3 |
| 20260505121802 | 47 | 349 | 5.2 | 7.0 | 0.00 | 0.00 | 0.00 | 27 | 1009.4 |
| 20260505115802 | 47 | 286 | 5.2 | 6.1 | 0.00 | 0.00 | 0.00 | 28 | 1009.4 |
| 20260505113802 | 48 | 333 | 7.0 | 7.8 | 0.00 | 0.00 | 0.00 | 27 | 1009.3 |
| 20260505111802 | 47 | 137 | 4.3 | 5.2 | 0.00 | 0.00 | 0.00 | 29 | 1009.4 |
| 20260505101802 | 45 | 229 | 2.6 | 2.6 | 0.00 | 0.00 | 0.00 | 35 | 1009.5 |
| 20260505095804 | 46 | 27 | 5.2 | 6.1 | 0.00 | 0.00 | 0.00 | 31 | 1010.5 |
| 20260505093802 | 43 | 254 | 3.5 | 6.1 | 0.00 | 0.00 | 0.00 | 35 | 1009.6 |
| 20260505091802 | 41 | 286 | 2.6 | 5.2 | 0.00 | 0.00 | 0.00 | 38 | 1009.8 |
| 20260505085802 | 44 | 20 | 2.6 | 3.5 | 0.00 | 0.00 | 0.00 | 38 | 1009.6 |
| 20260505083802 | 42 | 143 | 0.0 | 0.0 | 0.00 | 0.00 | 0.00 | 38 | 1009.7 |
| 20260505081802 | 41 | 283 | 6.1 | 7.8 | 0.00 | 0.00 | 0.00 | 39 | 1009.7 |
| 20260505080457 | 43 | 159 | 1.7 | 2.6 | 0.00 | 0.00 | 0.00 | 42 | 1009.7 |
| 20260505075802 | 42 | 165 | 3.5 | 7.0 | 0.00 | 0.00 | 0.00 | 39 | 1009.7 |
| 20260505073802 | 43 | 159 | 1.7 | 2.6 | 0.00 | 0.00 | 0.00 | 42 | 1009.7 |
| 20260505071802 | 41 | 355 | 5.2 | 6.1 | 0.00 | 0.00 | 0.00 | 42 | 1009.8 |
| 20260505065802 | 39 | 272 | 6.1 | 7.0 | 0.00 | 0.00 | 0.00 | 44 | 1009.8 |
| 20260505063802 | 39 | 359 | 3.5 | 5.2 | 0.00 | 0.00 | 0.00 | 44 | 1009.8 |
| 20260505061802 | 38 | 139 | 0.9 | 1.7 | 0.00 | 0.00 | 0.00 | 54 | 1009.9 |
| 20260505055802 | 40 | 215 | 2.6 | 2.6 | 0.00 | 0.00 | 0.00 | 45 | 1009.8 |
| 20260505053802 | 42 | 152 | 1.7 | 2.6 | 0.00 | 0.00 | 0.00 | 50 | 1009.7 |
| 20260505051801 | 38 | 127 | 1.7 | 1.7 | 0.00 | 0.00 | 0.00 | 57 | 1009.9 |
| 20260505035804 | 29 | 136 | 0.0 | 0.0 | 0.00 | 0.00 | 0.00 | 72 | 1009.3 |
| 20260505033802 | 30 | 140 | 0.0 | 0.0 | 0.00 | 0.00 | 0.00 | 69 | 1009.3 |
| 20260505033134 | 31 | 139 | 0.0 | 0.9 | 0.00 | 0.00 | 0.00 | 66 | 1009.2 |
| 20260505031801 | 31 | 139 | 0.0 | 0.9 | 0.00 | 0.00 | 0.00 | 66 | 1009.2 |
| 20260505025802 | 32 | 192 | 0.9 | 0.9 | 0.00 | 0.00 | 0.00 | 63 | 1009.2 |
| 20260505023802 | 32 | 132 | 0.9 | 0.9 | 0.00 | 0.00 | 0.00 | 62 | 1009.2 |
| 20260505021802 | 33 | 124 | 1.7 | 1.7 | 0.00 | 0.00 | 0.00 | 62 | 1008.2 |
| 20260505015802 | 34 | 302 | 3.5 | 7.0 | 0.00 | 0.00 | 0.00 | 59 | 1008.0 |
| 20260505014616 | 34 | 257 | 5.2 | 7.0 | 0.00 | 0.00 | 0.00 | 59 | 1008.0 |
| 20260505013802 | 34 | 215 | 2.6 | 3.5 | 0.00 | 0.00 | 0.00 | 59 | 1008.0 |
| 20260505011802 | 34 | 257 | 5.2 | 7.0 | 0.00 | 0.00 | 0.00 | 59 | 1008.0 |
| 20260505005802 | 33 | 140 | 4.3 | 6.1 | 0.00 | 0.00 | 0.00 | 63 | 1008.2 |
| 20260505003802 | 35 | 164 | 1.7 | 2.6 | 0.00 | 0.00 | 0.00 | 59 | 1008.0 |